Station Historical Data
Daily Summary for January 12, 2018 Units:  Metric    English   Both
« Previous Day
Next Day »
Daily Weekly Monthly Yearly Custom
  High: Low: Average:
Temperature: -17.8 °C -8.6 °C 4.8 °C
Dew Point: -17.8 °C -10.2 °C 2.8 °C
Humidity: Humidity% 80% 87%
Wind Speed: 0km/h 0km/h 9.3km/h
Wind Gust: 0km/h - -
Wind- - WSW
Pressure: 0 hPa 1001.9 hPa -
Precipitation: 0 mm    
Historical Graphs
 
 
Tabular Data for January 12, 2018
Time Temperature Dew Point Pressure Wind Wind Speed Wind Gust Humidity Rainfall Rate (Hourly)
-17.8 °C -17.8 °C 0 hPa Calm     Humidity% 0 mm
00:04 13.6 °C 10.6 °C 1008.7 hPa South 12.9 km/h 29 km/h 82% 0 mm
00:09 13.6 °C 10.6 °C 1008.7 hPa South 20.9 km/h 29 km/h 82% 0 mm
00:14 13.7 °C 10.7 °C 1008.4 hPa SSW 17.7 km/h 29 km/h 82% 0 mm
00:19 13.8 °C 10.8 °C 1008.4 hPa South 16.1 km/h 27.4 km/h 82% 0 mm
00:24 13.9 °C 10.7 °C 1008.4 hPa South 11.3 km/h 30.6 km/h 81% 0 mm
00:29 14.1 °C 10.7 °C 1008.4 hPa SSW 12.9 km/h 32.2 km/h 80% 0 mm
00:34 14.1 °C 10.7 °C 1008 hPa SSE 11.3 km/h 30.6 km/h 80% 0 mm
00:39 14.1 °C 10.7 °C 1008.4 hPa South 25.7 km/h 25.7 km/h 80% 0 mm
00:44 14.1 °C 10.9 °C 1008.4 hPa South 22.5 km/h 35.4 km/h 81% 0 mm
00:49 13.9 °C 10.9 °C 1008.4 hPa South 14.5 km/h 35.4 km/h 82% 0.25 mm
00:54 13.8 °C 10.9 °C 1007.7 hPa South 11.3 km/h 29 km/h 83% 0.25 mm
00:59 13.7 °C 10.9 °C 1008 hPa South 11.3 km/h 27.4 km/h 83% 0.25 mm
01:09 13.8 °C 11 °C 1007.7 hPa South 12.9 km/h 29 km/h 83% 0.25 mm
01:14 13.9 °C 10.9 °C 1007.7 hPa South 11.3 km/h 29 km/h 82% 0.25 mm
01:24 14.1 °C 10.9 °C 1007.7 hPa South 24.1 km/h 29 km/h 81% 0.25 mm
01:29 14.2 °C 10.9 °C 1007.7 hPa SSE 11.3 km/h 25.7 km/h 81% 0.25 mm
01:34 14.3 °C 11.1 °C 1007.3 hPa South 16.1 km/h 35.4 km/h 81% 0.25 mm
01:39 14.4 °C 11 °C 1007.7 hPa South 19.3 km/h 24.1 km/h 80% 0.25 mm
01:44 14.4 °C 11 °C 1007.3 hPa SSW 8 km/h 25.7 km/h 80% 0.25 mm
01:54 14.4 °C 11.2 °C 1007.3 hPa South 12.9 km/h 27.4 km/h 81% 0 mm
01:59 14.4 °C 11.2 °C 1007.3 hPa South 12.9 km/h 32.2 km/h 81% 0 mm
02:09 14 °C 11.2 °C 1007 hPa South 12.9 km/h 24.1 km/h 83% 0 mm
02:14 13.8 °C 11.2 °C 1007 hPa South 12.9 km/h 27.4 km/h 84% 0.25 mm
02:19 13.8 °C 11.1 °C 1007 hPa South 12.9 km/h 27.4 km/h 84% 0.25 mm
02:24 13.7 °C 11.2 °C 1006.7 hPa South 11.3 km/h 25.7 km/h 85% 0.25 mm
02:29 13.6 °C 11.1 °C 1006.7 hPa South 11.3 km/h 22.5 km/h 85% 0.25 mm
02:34 13.6 °C 11.1 °C 1006.7 hPa South 4.8 km/h 17.7 km/h 85% 0.25 mm
02:39 13.6 °C 11.3 °C 1006.7 hPa SSE 8 km/h 25.7 km/h 86% 0.25 mm
02:44 13.6 °C 11.3 °C 1006.7 hPa South 6.4 km/h 19.3 km/h 86% 0.25 mm
02:49 13.6 °C 11.1 °C 1006.7 hPa SSE 9.7 km/h 20.9 km/h 85% 0.25 mm
02:54 13.6 °C 11.1 °C 1006.7 hPa SSW 9.7 km/h 27.4 km/h 85% 0.25 mm
02:59 13.7 °C 11.2 °C 1006.7 hPa SSE 3.2 km/h 22.5 km/h 85% 0.51 mm
03:04 13.7 °C 11.2 °C 1006.7 hPa SSW 9.7 km/h 22.5 km/h 85% 0.51 mm
03:09 13.7 °C 11.2 °C 1006.7 hPa South 9.7 km/h 20.9 km/h 85% 0.76 mm
03:14 13.7 °C 11.4 °C 1006.7 hPa South 11.3 km/h 22.5 km/h 86% 0.76 mm
03:19 13.6 °C 11.3 °C 1006.7 hPa South 12.9 km/h 22.5 km/h 86% 1.27 mm
03:24 13.6 °C 11.3 °C 1006.3 hPa South 11.3 km/h 20.9 km/h 86% 1.52 mm
03:29 13.5 °C 11.2 °C 1006.3 hPa South 9.7 km/h 20.9 km/h 86% 1.78 mm
03:34 13.5 °C 11.4 °C 1006 hPa SSW 6.4 km/h 16.1 km/h 87% 1.78 mm
03:39 13.4 °C 11.3 °C 1006.3 hPa SSW 4.8 km/h 14.5 km/h 87% 1.78 mm
03:44 13.4 °C 11.3 °C 1006 hPa South 8 km/h 16.1 km/h 87% 1.78 mm
03:49 13.4 °C 11.3 °C 1006 hPa South 17.7 km/h 20.9 km/h 87% 1.78 mm
03:54 13.5 °C 11.4 °C 1006 hPa South 9.7 km/h 22.5 km/h 87% 1.78 mm
03:59 13.6 °C 11.3 °C 1006 hPa SSE 6.4 km/h 20.9 km/h 86% 1.78 mm
04:04 13.7 °C 11.4 °C 1006 hPa SSW 8 km/h 16.1 km/h 86% 1.78 mm
04:09 13.8 °C 11.5 °C 1005.6 hPa SSW 12.9 km/h 25.7 km/h 86% 1.78 mm
04:14 13.8 °C 11.3 °C 1006 hPa South 12.9 km/h 25.7 km/h 85% 1.52 mm
04:19 13.8 °C 11.3 °C 1005.6 hPa SSW 11.3 km/h 25.7 km/h 85% 1.02 mm
04:29 13.8 °C 11.3 °C 1005.6 hPa South 9.7 km/h 19.3 km/h 85% 0.76 mm
04:34 13.7 °C 11.4 °C 1005.6 hPa South 8 km/h 12.9 km/h 86% 1.02 mm
04:39 13.7 °C 11.4 °C 1005.6 hPa South 8 km/h 17.7 km/h 86% 1.02 mm
04:44 13.7 °C 11.4 °C 1005.3 hPa South 9.7 km/h 19.3 km/h 86% 1.27 mm
04:59 13.7 °C 11.6 °C 1005 hPa South 12.9 km/h 27.4 km/h 87% 1.27 mm
05:04 13.7 °C 11.4 °C 1005 hPa South 24.1 km/h 27.4 km/h 86% 1.27 mm
05:09 13.7 °C 11.4 °C 1005 hPa SSW 8 km/h 24.1 km/h 86% 1.27 mm
05:14 13.7 °C 11.6 °C 1005 hPa SSW 11.3 km/h 27.4 km/h 87% 1.52 mm
05:19 13.7 °C 11.6 °C 1004.6 hPa South 12.9 km/h 27.4 km/h 87% 1.78 mm
05:24 13.6 °C 11.5 °C 1004.6 hPa SSW 11.3 km/h 17.7 km/h 87% 1.78 mm
05:29 13.7 °C 11.6 °C 1004.3 hPa South 14.5 km/h 24.1 km/h 87% 1.78 mm
05:34 13.7 °C 11.7 °C 1003.9 hPa SSE 9.7 km/h 17.7 km/h 88% 1.52 mm
05:44 13.6 °C 11.7 °C 1003.9 hPa SSW 6.4 km/h 14.5 km/h 88% 1.52 mm
05:49 13.6 °C 11.7 °C 1003.9 hPa SSW 9.7 km/h 16.1 km/h 88% 1.78 mm
05:54 13.6 °C 11.7 °C 1003.9 hPa South 8 km/h 19.3 km/h 88% 1.78 mm
05:59 13.6 °C 11.7 °C 1003.9 hPa South 8 km/h 19.3 km/h 88% 1.52 mm
06:04 13.6 °C 11.7 °C 1003.9 hPa South 6.4 km/h 14.5 km/h 88% 1.52 mm
06:14 13.6 °C 11.7 °C 1003.6 hPa South 6.4 km/h 12.9 km/h 88% 1.02 mm
06:19 13.6 °C 11.7 °C 1003.6 hPa SW 14.5 km/h 17.7 km/h 88% 0.76 mm
06:24 13.7 °C 11.7 °C 1003.9 hPa SSW 9.7 km/h 17.7 km/h 88% 0.76 mm
06:29 13.8 °C 11.8 °C 1003.9 hPa South 4.8 km/h 25.7 km/h 88% 0.51 mm
06:39 13.8 °C 11.7 °C 1003.6 hPa SSW 9.7 km/h 20.9 km/h 87% 0.25 mm
06:44 13.8 °C 11.7 °C 1003.3 hPa SSW 8 km/h 16.1 km/h 87% 0.25 mm
06:49 13.8 °C 11.7 °C 1003.3 hPa South 12.9 km/h 12.9 km/h 87% 0 mm
06:54 13.8 °C 11.7 °C 1002.9 hPa South 9.7 km/h 14.5 km/h 87% 0 mm
06:59 13.8 °C 11.5 °C 1002.9 hPa South 8 km/h 14.5 km/h 86% 0.25 mm
07:04 13.8 °C 11.7 °C 1002.9 hPa South 6.4 km/h 12.9 km/h 87% 0.25 mm
07:09 13.7 °C 11.6 °C 1002.9 hPa SSW 4.8 km/h 9.7 km/h 87% 0.25 mm
07:14 13.7 °C 11.6 °C 1002.9 hPa South 6.4 km/h 11.3 km/h 87% 0.25 mm
07:19 13.7 °C 11.6 °C 1002.9 hPa South 6.4 km/h 16.1 km/h 87% 0.25 mm
07:24 13.7 °C 11.6 °C 1002.9 hPa SSW 9.7 km/h 16.1 km/h 87% 0.25 mm
07:29 13.8 °C 11.7 °C 1002.9 hPa WSW 9.7 km/h 9.7 km/h 87% 0.25 mm
07:34 13.8 °C 11.7 °C 1002.9 hPa SSW 6.4 km/h 17.7 km/h 87% 0.25 mm
07:44 13.9 °C 11.8 °C 1002.9 hPa SSW 8 km/h 16.1 km/h 87% 0.51 mm
07:49 13.8 °C 11.7 °C 1002.9 hPa SW 4.8 km/h 11.3 km/h 87% 0.51 mm
07:54 13.9 °C 11.8 °C 1002.6 hPa South 6.4 km/h 11.3 km/h 87% 0.51 mm
07:59 13.8 °C 11.7 °C 1002.9 hPa SSW 4.8 km/h 11.3 km/h 87% 0.25 mm
08:04 13.8 °C 11.7 °C 1002.6 hPa SSW 4.8 km/h 11.3 km/h 87% 0.25 mm
08:09 13.8 °C 11.7 °C 1002.6 hPa SSW 4.8 km/h 12.9 km/h 87% 0.25 mm
08:14 13.9 °C 11.8 °C 1002.6 hPa SSW 6.4 km/h 12.9 km/h 87% 0.25 mm
08:19 13.9 °C 11.8 °C 1002.6 hPa SSW 6.4 km/h 16.1 km/h 87% 0.25 mm
08:24 13.9 °C 11.8 °C 1002.6 hPa SSW 6.4 km/h 16.1 km/h 87% 0.25 mm
08:29 14 °C 11.9 °C 1002.6 hPa Calm   14.5 km/h 87% 0.51 mm
08:34 13.9 °C 11.8 °C 1002.6 hPa SSW 9.7 km/h 12.9 km/h 87% 0.51 mm
08:39 14 °C 11.9 °C 1002.6 hPa SSW 3.2 km/h 14.5 km/h 87% 0.25 mm
08:49 13.9 °C 12 °C 1002.6 hPa SSW 4.8 km/h 12.9 km/h 88% 0.25 mm
08:54 13.9 °C 12 °C 1002.6 hPa SSW 3.2 km/h 12.9 km/h 88% 0.25 mm
08:59 13.9 °C 12 °C 1002.6 hPa SSW 6.4 km/h 11.3 km/h 88% 0.25 mm
09:09 14.1 °C 12.1 °C 1002.6 hPa SW 4.8 km/h 11.3 km/h 88% 0.25 mm
09:14 14.1 °C 12 °C 1002.6 hPa SSW 4.8 km/h 11.3 km/h 87% 0.25 mm
09:19 14.2 °C 12.1 °C 1002.6 hPa SSW 6.4 km/h 17.7 km/h 87% 0.25 mm
09:24 14.3 °C 12.2 °C 1002.6 hPa SSW 8 km/h 17.7 km/h 87% 0.25 mm
09:29 14.4 °C 12.3 °C 1002.6 hPa SSW 8 km/h 14.5 km/h 87% 0 mm
09:34 14.4 °C 12.3 °C 1002.6 hPa SSW 8 km/h 20.9 km/h 87% 0 mm
09:39 14.6 °C 12.3 °C 1002.3 hPa SSW 11.3 km/h 16.1 km/h 86% 0 mm
09:49 14.8 °C 12.3 °C 1002.3 hPa SSW 9.7 km/h 19.3 km/h 85% 0 mm
09:54 14.9 °C 12.4 °C 1002.3 hPa SSW 9.7 km/h 19.3 km/h 85% 0 mm
09:59 15.1 °C 12.4 °C 1002.3 hPa SSW 8 km/h 24.1 km/h 84% 0 mm
10:04 15.2 °C 12.6 °C 1002.3 hPa SSW 11.3 km/h 24.1 km/h 84% 0 mm
10:09 15.2 °C 12.3 °C 1002.3 hPa South 6.4 km/h 16.1 km/h 83% 0 mm
10:14 15.3 °C 12.4 °C 1002.3 hPa South 9.7 km/h 22.5 km/h 83% 0 mm
10:19 15.3 °C 12.4 °C 1002.3 hPa South 4.8 km/h 17.7 km/h 83% 0 mm
10:24 15.3 °C 12.3 °C 1002.3 hPa SSW 8 km/h 17.7 km/h 82% 0 mm
10:29 15.3 °C 12.3 °C 1002.3 hPa SSW 8 km/h 14.5 km/h 82% 0 mm
10:34 15.3 °C 12.2 °C 1002.3 hPa SW 8 km/h 14.5 km/h 82% 0 mm
10:39 15.2 °C 12.1 °C 1002.3 hPa SW 8 km/h 12.9 km/h 82% 0 mm
10:44 14.6 °C 11.4 °C 1002.3 hPa WSW 12.9 km/h 14.5 km/h 81% 0 mm
10:49 13.8 °C 10.8 °C 1002.3 hPa WSW 11.3 km/h 14.5 km/h 82% 0 mm
10:54 13.3 °C 10.4 °C 1002.3 hPa WSW 3.2 km/h 14.5 km/h 83% 0 mm
10:59 12.9 °C 10.3 °C 1001.9 hPa WSW 8 km/h 14.5 km/h 84% 0 mm
11:04 12.7 °C 10.4 °C 1002.6 hPa West 6.4 km/h 16.1 km/h 86% 0 mm
11:19 8.6 °C 5.7 °C 1003.6 hPa NW 6.4 km/h 35.4 km/h 82% 2.29 mm
11:29 6.6 °C 4.3 °C 1003.6 hPa NW 14.5 km/h 24.1 km/h 85% 3.3 mm
11:34 6.2 °C 4.2 °C 1003.6 hPa NNW 11.3 km/h 24.1 km/h 87% 3.56 mm
11:39 5.9 °C 3.9 °C 1003.6 hPa NNW 8 km/h 27.4 km/h 87% 3.56 mm
11:44 5.6 °C 3.6 °C 1003.9 hPa NNW 9.7 km/h 27.4 km/h 87% 3.81 mm
11:49 5.4 °C 3.6 °C 1003.9 hPa NNW 9.7 km/h 24.1 km/h 88% 3.81 mm
11:54 5.1 °C 3.3 °C 1004.3 hPa NNE 9.7 km/h 22.5 km/h 88% 3.81 mm
11:59 4.9 °C 3.1 °C 1003.9 hPa NW 6.4 km/h 12.9 km/h 88% 3.81 mm
12:04 4.7 °C 2.9 °C 1003.9 hPa North 9.7 km/h 22.5 km/h 88% 3.81 mm
12:09 4.4 °C 2.6 °C 1004.3 hPa North 12.9 km/h 27.4 km/h 88% 3.56 mm
12:14 4.3 °C 2.4 °C 1004.3 hPa NNW 11.3 km/h 27.4 km/h 88% 2.03 mm
12:19 4.1 °C 2.2 °C 1004.3 hPa North 12.9 km/h 30.6 km/h 88% 1.52 mm
12:24 3.8 °C 2 °C 1004.3 hPa North 14.5 km/h 22.5 km/h 88% 1.02 mm
12:29 3.8 °C 2.1 °C 1004.6 hPa NNE 16.1 km/h 25.7 km/h 89% 0.76 mm
12:34 3.7 °C 1.9 °C 1004.6 hPa NNW 8 km/h 25.7 km/h 88% 0.51 mm
12:39 3.6 °C 1.9 °C 1004.6 hPa North 9.7 km/h 19.3 km/h 89% 0.51 mm
12:44 3.4 °C 1.7 °C 1004.6 hPa NNW 9.7 km/h 25.7 km/h 89% 0.25 mm
12:49 3.3 °C 1.7 °C 1004.6 hPa NNW 11.3 km/h 25.7 km/h 89% 0.51 mm
12:54 3.2 °C 1.6 °C 1004.6 hPa North 11.3 km/h 25.7 km/h 89% 0.51 mm
12:59 3.1 °C 1.4 °C 1005 hPa North 11.3 km/h 25.7 km/h 89% 0.51 mm
13:04 3 °C 1.4 °C 1005.3 hPa North 9.7 km/h 19.3 km/h 89% 0.51 mm
13:14 2.7 °C 1.1 °C 1005.3 hPa North 8 km/h 20.9 km/h 89% 0.51 mm
13:19 2.6 °C 0.9 °C 1005.6 hPa North 9.7 km/h 22.5 km/h 89% 0.51 mm
13:24 2.6 °C 0.9 °C 1006 hPa North 9.7 km/h 22.5 km/h 89% 0.76 mm
13:34 2.6 °C 0.9 °C 1006 hPa North 11.3 km/h 11.3 km/h 89% 1.27 mm
13:39 2.3 °C 0.7 °C 1005.6 hPa North 11.3 km/h 27.4 km/h 89% 1.27 mm
13:44 2.3 °C 0.7 °C 1006 hPa NW 8 km/h 17.7 km/h 89% 1.52 mm
13:49 2.2 °C 0.6 °C 1006 hPa North 1.6 km/h 19.3 km/h 89% 1.27 mm
13:54 2.3 °C 0.8 °C 1006 hPa North 6.4 km/h 19.3 km/h 90% 1.27 mm
13:59 2.3 °C 0.8 °C 1006.3 hPa North 4.8 km/h 12.9 km/h 90% 1.52 mm
14:04 2.2 °C 0.6 °C 1007 hPa NNW 6.4 km/h 14.5 km/h 89% 1.52 mm
14:09 2.2 °C 0.7 °C 1007 hPa WNW 9.7 km/h 17.7 km/h 90% 1.52 mm
14:14 2.2 °C 0.8 °C 1007.3 hPa NW 4.8 km/h 14.5 km/h 90% 1.78 mm
14:19 1.9 °C 0.3 °C 1007.3 hPa NW 8 km/h 22.5 km/h 89% 2.03 mm
14:24 1.7 °C 0.1 °C 1007.3 hPa NW 9.7 km/h 22.5 km/h 89% 2.03 mm
14:29 1.6 °C -0.1 °C 1007.3 hPa NW 8 km/h 20.9 km/h 89% 1.78 mm
14:34 1.5 °C -0.1 °C 1007.7 hPa NNW 8 km/h 20.9 km/h 89% 1.27 mm
14:39 1.4 °C 0 °C 1007.7 hPa NNW 6.4 km/h 20.9 km/h 90% 1.52 mm
14:44 1.3 °C -0.3 °C 1008 hPa NW 9.7 km/h 16.1 km/h 89% 1.27 mm
14:49 0.9 °C -0.7 °C 1008 hPa North 9.7 km/h 24.1 km/h 89% 1.27 mm
14:54 0.7 °C -0.9 °C 1008 hPa WNW 9.7 km/h 14.5 km/h 89% 1.27 mm
14:59 0.5 °C -1.1 °C 1008 hPa NW 8 km/h 17.7 km/h 89% 1.02 mm
15:04 0.2 °C -1.4 °C 1008 hPa NW 9.7 km/h 20.9 km/h 89% 1.27 mm
15:09 0.1 °C -1.5 °C 1008.4 hPa NW 8 km/h 20.9 km/h 89% 1.27 mm
15:14 -0.1 °C -1.7 °C 1008.7 hPa WNW 14.5 km/h 17.7 km/h 89% 1.27 mm
15:19 -0.1 °C -1.7 °C 1008.7 hPa NNW 14.5 km/h 17.7 km/h 89% 1.02 mm
15:24 -0.3 °C -1.9 °C 1008.7 hPa NNW 9.7 km/h 17.7 km/h 89% 1.02 mm
15:29 -0.4 °C -2 °C 1009 hPa North 8 km/h 16.1 km/h 89% 1.27 mm
15:34 -0.5 °C -2.1 °C 1009 hPa NW 8 km/h 22.5 km/h 89% 1.52 mm
15:39 -0.6 °C -2.2 °C 1009.4 hPa NW 8 km/h 22.5 km/h 89% 1.27 mm
15:44 -0.9 °C -2.5 °C 1009.4 hPa NW 6.4 km/h 20.9 km/h 89% 1.27 mm
15:49 -1.1 °C -2.6 °C 1009.7 hPa WNW 9.7 km/h 20.9 km/h 89% 1.27 mm
15:54 -1.2 °C -2.7 °C 1010 hPa WNW 9.7 km/h 17.7 km/h 89% 1.27 mm
15:59 -1.2 °C -2.8 °C 1010 hPa NNW 4.8 km/h 19.3 km/h 89% 1.52 mm
16:04 -1.2 °C -2.8 °C 1010 hPa NNW 6.4 km/h 16.1 km/h 89% 1.27 mm
16:09 -1.3 °C -2.9 °C 1010 hPa NW 8 km/h 16.1 km/h 89% 1.27 mm
16:14 -1.4 °C -3 °C 1010 hPa NW 6.4 km/h 16.1 km/h 89% 1.02 mm
16:19 -1.6 °C -3.1 °C 1010.4 hPa NW 4.8 km/h 19.3 km/h 89% 1.02 mm
16:24 -1.8 °C -3.4 °C 1010.4 hPa North 11.3 km/h 17.7 km/h 89% 0.76 mm
16:29 -2.1 °C -3.6 °C 1010.7 hPa NW 8 km/h 11.3 km/h 89% 0.51 mm
16:34 -2.2 °C -3.8 °C 1010.7 hPa WNW 14.5 km/h 16.1 km/h 89% 0.25 mm
16:39 -2.4 °C -4.2 °C 1011.1 hPa NW 8 km/h 17.7 km/h 88% 0.25 mm
16:44 -2.8 °C -4.5 °C 1011.4 hPa NW 8 km/h 17.7 km/h 88% 0.25 mm
16:49 -2.8 °C -4.4 °C 1011.7 hPa NW 8 km/h 17.7 km/h 89% 0.25 mm
16:59 -3.1 °C -4.8 °C 1011.7 hPa NNW 11.3 km/h 22.5 km/h 88% 0 mm
17:04 -3.4 °C -5.1 °C 1011.7 hPa West 11.3 km/h 22.5 km/h 88% 0 mm
17:09 -3.6 °C -5.3 °C 1011.4 hPa NNW 6.4 km/h 19.3 km/h 88% 0 mm
17:14 -3.8 °C -5.5 °C 1011.1 hPa NNW 9.7 km/h 22.5 km/h 88% 0 mm
17:19 -3.9 °C -5.7 °C 1011.1 hPa NNW 9.7 km/h 22.5 km/h 88% 0 mm
17:24 -4.1 °C -5.8 °C 1011.1 hPa NNW 8 km/h 20.9 km/h 88% 0 mm
17:29 -4.3 °C -5.9 °C 1011.4 hPa NNW 6.4 km/h 17.7 km/h 88% 0 mm
17:34 -4.4 °C -6.1 °C 1011.7 hPa NW 6.4 km/h 16.1 km/h 88% 0 mm
17:49 -4.8 °C -6.5 °C 1011.7 hPa NNW 8 km/h 17.7 km/h 88% 0 mm
17:54 -4.9 °C -6.4 °C 1011.7 hPa NNW 8 km/h 17.7 km/h 89% 0 mm
17:59 -4.9 °C -6.4 °C 1012.1 hPa NNW 6.4 km/h 12.9 km/h 89% 0 mm
18:04 -5 °C -6.7 °C 1012.1 hPa NNW 8 km/h 20.9 km/h 88% 0 mm
18:09 -5.2 °C -6.8 °C 1012.4 hPa NNW 11.3 km/h 22.5 km/h 88% 0 mm
18:14 -5.3 °C -7 °C 1012.4 hPa NNW 11.3 km/h 22.5 km/h 88% 0 mm
18:19 -5.4 °C -6.9 °C 1012.4 hPa North 6.4 km/h 17.7 km/h 89% 0 mm
18:24 -5.5 °C -7.2 °C 1012.4 hPa NW 4.8 km/h 20.9 km/h 88% 0 mm
18:34 -5.6 °C -7.1 °C 1012.8 hPa NNW 8 km/h 17.7 km/h 89% 0 mm
18:39 -5.6 °C -7.1 °C 1013.4 hPa NNW 8 km/h 12.9 km/h 89% 0 mm
18:44 -5.6 °C -7.1 °C 1013.4 hPa NNW 11.3 km/h 22.5 km/h 89% 0 mm
18:49 -5.7 °C -7.3 °C 1013.4 hPa NNW 14.5 km/h 19.3 km/h 88% 0 mm
18:54 -5.8 °C -7.5 °C 1013.4 hPa North 11.3 km/h 19.3 km/h 88% 0 mm
18:59 -5.9 °C -7.6 °C 1013.4 hPa North 12.9 km/h 20.9 km/h 88% 0 mm
19:04 -6.2 °C -7.9 °C 1013.4 hPa North 11.3 km/h 25.7 km/h 88% 0 mm
19:14 -6.4 °C -8.1 °C 1014.1 hPa NNW 9.7 km/h 24.1 km/h 88% 0 mm
19:19 -6.5 °C -8.2 °C 1014.1 hPa NNW 8 km/h 20.9 km/h 88% 0 mm
19:24 -6.5 °C -8.2 °C 1015.1 hPa North 6.4 km/h 14.5 km/h 88% 0 mm
19:29 -6.6 °C -8.3 °C 1015.5 hPa NW 3.2 km/h 12.9 km/h 88% 0 mm
19:34 -6.6 °C -8.1 °C 1015.1 hPa NW 12.9 km/h 16.1 km/h 89% 0 mm
19:39 -6.7 °C -8.4 °C 1015.1 hPa NNW 9.7 km/h 25.7 km/h 88% 0 mm
19:49 -6.9 °C -8.6 °C 1015.1 hPa North 9.7 km/h 19.3 km/h 88% 0 mm
19:54 -7 °C -8.7 °C 1015.1 hPa NNW 14.5 km/h 20.9 km/h 88% 0 mm
20:04 -7.2 °C -8.8 °C 1014.8 hPa NNE 4.8 km/h 20.9 km/h 88% 0 mm
20:09 -7.2 °C -8.9 °C 1014.8 hPa North 8 km/h 20.9 km/h 88% 0 mm
20:14 -7.2 °C -8.7 °C 1014.4 hPa North 4.8 km/h 12.9 km/h 89% 0 mm
20:19 -7.2 °C -8.7 °C 1014.1 hPa North 8 km/h 12.9 km/h 89% 0 mm
20:24 -7.3 °C -8.8 °C 1014.1 hPa North 6.4 km/h 12.9 km/h 89% 0 mm
20:29 -7.3 °C -8.8 °C 1014.1 hPa North 6.4 km/h 12.9 km/h 89% 0 mm
20:39 -7.4 °C -8.9 °C 1014.1 hPa NNE 8 km/h 14.5 km/h 89% 0 mm
20:44 -7.4 °C -9.1 °C 1014.1 hPa NNE 8 km/h 14.5 km/h 88% 0 mm
20:49 -7.5 °C -9.2 °C 1014.1 hPa NNE 8 km/h 17.7 km/h 88% 0 mm
20:54 -7.5 °C -9.2 °C 1013.8 hPa NNE 8 km/h 22.5 km/h 88% 0 mm
20:59 -7.6 °C -9.2 °C 1013.8 hPa North 12.9 km/h 19.3 km/h 88% 0 mm
21:04 -7.6 °C -9.3 °C 1013.8 hPa North 9.7 km/h 19.3 km/h 88% 0 mm
21:09 -7.6 °C -9.1 °C 1014.1 hPa NNE 6.4 km/h 11.3 km/h 89% 0 mm
21:14 -7.6 °C -9.1 °C 1014.1 hPa NNE 8 km/h 12.9 km/h 89% 0 mm
21:19 -7.6 °C -9.1 °C 1014.1 hPa North 9.7 km/h 16.1 km/h 89% 0 mm
21:24 -7.6 °C -9.1 °C 1013.8 hPa North 9.7 km/h 16.1 km/h 89% 0 mm
21:29 -7.7 °C -9.2 °C 1013.8 hPa North 6.4 km/h 17.7 km/h 89% 0 mm
21:34 -7.8 °C -9.4 °C 1014.1 hPa North 9.7 km/h 24.1 km/h 88% 0 mm
21:39 -7.9 °C -9.6 °C 1014.1 hPa North 11.3 km/h 24.1 km/h 88% 0 mm
21:44 -8 °C -9.6 °C 1013.8 hPa North 8 km/h 19.3 km/h 88% 0 mm
21:49 -8.1 °C -9.7 °C 1013.8 hPa NNW 8 km/h 16.1 km/h 88% 0 mm
21:54 -8.1 °C -9.7 °C 1013.4 hPa North 8 km/h 17.7 km/h 88% 0 mm
21:59 -8.2 °C -9.8 °C 1013.8 hPa North 9.7 km/h 19.3 km/h 88% 0 mm
22:04 -8.3 °C -9.9 °C 1014.1 hPa North 9.7 km/h 19.3 km/h 88% 0 mm
22:14 -8.3 °C -9.9 °C 1014.4 hPa North 6.4 km/h 14.5 km/h 88% 0 mm
22:19 -8.4 °C -10 °C 1014.8 hPa North 3.2 km/h 17.7 km/h 88% 0 mm
22:24 -8.4 °C -10 °C 1014.8 hPa North 8 km/h 16.1 km/h 88% 0 mm
22:29 -8.4 °C -10.1 °C 1014.8 hPa North 8 km/h 17.7 km/h 88% 0 mm
22:34 -8.4 °C -10.1 °C 1014.8 hPa North 4.8 km/h 12.9 km/h 88% 0 mm
22:39 -8.5 °C -10.1 °C 1014.8 hPa NNW 6.4 km/h 12.9 km/h 88% 0 mm
22:44 -8.5 °C -10.1 °C 1014.4 hPa North 9.7 km/h 17.7 km/h 88% 0 mm
22:49 -8.5 °C -10.1 °C 1014.8 hPa NNW 6.4 km/h 20.9 km/h 88% 0 mm
22:54 -8.6 °C -10.2 °C 1015.1 hPa NNW 4.8 km/h 16.1 km/h 88% 0 mm
23:04 -8.6 °C -10.2 °C 1015.1 hPa NNW 8 km/h 16.1 km/h 88% 0 mm
23:09 -8.6 °C -10.2 °C 1015.1 hPa NNW 9.7 km/h 19.3 km/h 88% 0 mm
23:14 -8.6 °C -10.2 °C 1015.1 hPa NNW 8 km/h 19.3 km/h 88% 0 mm
23:19 -8.5 °C -10.1 °C 1014.8 hPa North 16.1 km/h 19.3 km/h 88% 0 mm
23:29 -8.5 °C -10.1 °C 1014.1 hPa NNW 14.5 km/h 16.1 km/h 88% 0 mm
23:34 -8.4 °C -10.1 °C 1013.8 hPa North 9.7 km/h 16.1 km/h 88% 0 mm
23:39 -8.4 °C -10.1 °C 1014.8 hPa North 9.7 km/h 24.1 km/h 88% 0 mm
23:49 -8.4 °C -10.1 °C 1015.1 hPa North 8 km/h 16.1 km/h 88% 0 mm
23:54 -8.4 °C -10.1 °C 1014.8 hPa North 8 km/h 16.1 km/h 88% 0 mm
23:59 -8.4 °C -10.1 °C 1014.8 hPa NNE 8 km/h 14.5 km/h 88% 0 mm
Buffalo, New York, USA
Compliments of Weather Underground - 2.25 mb